Погода в Ротове

Россия / Псковская область     57°38′33″N   27°32′38″E
темп.,
°C
ветер,
м/с
пор.,
м/с
влажн.,
%
обл.,
%
осадки,
мм/ч
давл.,
гПа
погр.,
м
6 мая, чт
чт600:00+5ю2695100 0.2 999112
03:00+5юз2595100 0.3 997105
06:00+5ююз2595100 0.7 996136
09:00+6юз2488100 1.4 995502
12:00+8юз4678100 0.4 994867
15:00+9юз6978100 1.8 9951228
18:00+4юз51296100 0.6 9961109
21:00+4юз51290100 0.9 9981247
7 мая, пт
пт700:00+4ююз51295100 0.1 9981049
03:00+3юз51296100 0.5 9991014
06:00+3юз51197100 0.1 1000900
09:00+4юз51194100 0.1 1002853
12:00+5юз488958 0.1 1003850
15:00+8юз576795 0.5 10041289
18:00+9зюз3669100 0.6 10041065
21:00+5з1188100 0.8 100410
8 мая, сб
сб800:00+4ссв1189100 0.0 100311
03:00+4ссз2494100 0.1 1002122
06:00+2сз3792100 0.4 1003502
09:00+3сз4789100 0.6 1003565
12:00+7сз5661100 0.0 10031329
15:00+6сз5773100 0.1 10051042
18:00+6сз6107089 0.3 10071340
21:00+4зсз4116816 0.4 1008445
9 мая, вс
вс900:00+3зсз5137227 0.0 1011532
03:00+1з413840 0.0 1013436
06:00+1з411881 0.0 1015322
09:00+7з475624 0.0 1016631
12:00+11юз5734100 0.0 10171678
15:00+13зюз583799 0.0 10172521
18:00+12юз3747100 0.0 10172144
21:00+8ююз396278 0.0 1019341
10 мая, пн
пн1000:00+7ююз41269100 0.0 1019701
03:00+8ююз61576100 0.4 1018727
06:00+8ююз5137899 0.0 1019429
09:00+13ююз6136219 0.0 1019548
12:00+18ююз6104757 0.0 10201069
15:00+20ююз6104399 0.0 10201465
18:00+19ю6105236 0.0 10191289
21:00+15ю51366100 0.0 1020759